Retour au catalogue

STARLINK-34608

ActifCommunicationsVLEO
NORAD 64810·PAYLOAD·🇺🇸 United States

Lancé Jul 16, 2025 depuis Vandenberg Space Force Base

Loading…

Prochains Passages (prochaines 24 heures)

TLE

FraisSource: CelesTrak SupGP

Époque: Sep 14, 2026, 21:39 UTC

1 64810C 25150W   26257.90256944 -.00018148  00000+0 -15193-2 0  2574
2 64810  70.0027  17.2694 0003255 260.4787  37.8263 14.98378816    10

Suivez STARLINK-34608 en temps réel avec AllMySat

Download on the App Store